Location: Augustenthal
(51.7167°N, 10.2833°E)
Time: 04:54:39
(UTC+00:00)

ISS - Pass Details

Date: 27 September 2021
Orbit: 417 x 423 km, 51.6° (Epoch: 15 October)

Event Time Altitude Azimuth Distance (km) Brightness Sun altitude
Rises 18:02:02 0° 272° (W) 2,365 2.2 -9.6°
Reaches altitude 10° 18:04:07 10° 272° (W) 1,502 0.7 -9.9°
Maximum altitude 18:07:30 89° 17° (NNE) 426 -3.8 -10.4°
Enters shadow 18:10:00 17° 93° (E) 1,153 -2.2 -10.8°
